Regional Weather Roundup
Issued by NWS

Home | Current Version | Previous Version | Graphics & Text | Print | Product List | Glossary On
Versions: 1 2 3 4 5 6 7 8 9 10 11 12 13 14 15 16 17 18 19 20 21 22 23 24 25 26 27 28 29 30 31 32 33 34 35 36 37 38 39 40 41 42 43 44 45 46 47 48 49 50
502
ASUS45 KSLC 290810
RWRUT

UTAH REGIONAL WEATHER ROUNDUP
NATIONAL WEATHER SERVICE SALT LAKE CITY UT
200 AM MDT THU JUN 29 2017

UTZ001>011-023>025-290900-

NORTHERN UTAH

CITY           SKY/WX    TMP DP  RH WIND       PRES   REMARKS
BRIGHAM CITY   CLEAR     65  43  44 CALM      29.95R
HILL AFB       CLEAR     65  41  41 E7        29.96R
LOGAN          PTCLDY    53  49  86 NW3       29.96R
OGDEN          CLEAR     66  44  45 NW3       29.93S
SALT LAKE CITY CLEAR     71  52  50 N6        29.92R
TOOELE VALLEY  CLEAR     55  45  67 S8        29.95R
WENDOVER       CLEAR     72  26  18 NE7       29.96R
HEBER CITY     CLEAR     50  36  57 CALM      30.01R
WEST JORDAN    CLEAR     69  50  50 W10       29.96S

$$

UTZ011>015-024>027-290900-

CENTRAL/NORTHEAST UTAH

CITY           SKY/WX    TMP DP  RH WIND       PRES   REMARKS
PROVO AIRPORT  CLEAR     63  45  51 VRB3      29.95R
MOAB/CANYONLAN CLEAR     76  22  13 W12       29.83R
DELTA          CLEAR     64  37  36 N6        29.96R
PRICE          CLEAR     61  28  28 NW9       29.98R
ROOSEVELT      CLEAR     59  34  38 CALM      29.97R
VERNAL         CLEAR     65  37  35 E10       29.96R

$$

UTZ013>016-019>022-027-290900-

SOUTHERN UTAH

CITY           SKY/WX    TMP DP  RH WIND       PRES   REMARKS
BRYCE CANYON   MOCLDY    54  17  23 N9        30.15R
CEDAR CITY     CLEAR     60  22  23 N7        30.00R
MILFORD        CLEAR     64  23  21 N9        29.97R
ST GEORGE      SUNNY     85  21   9 W8        29.79S
HANKSVILLE     CLEAR     75  19  12 S3        29.88R
BLANDING       CLEAR     66  15  14 NW9       30.03S

$$

REGIONAL REPORTS     COLORADO/ARIZONA

CITY           SKY/WX    TMP DP  RH WIND       PRES   REMARKS
CRAIG, CO      CLEAR     58  32  37 CALM      30.02R
GRAND JUNCTION CLEAR     73  24  16 N6        29.84R
RIFLE, CO      CLEAR     66  29  24 SE8       29.90S
MONTROSE, CO   CLEAR     67  13  12 E7        29.92R
CORTEZ, CO     CLEAR     52  22  30 E7        30.00R
COLORADO CITY    N/A     61  19  20 CALM      30.00S
PAGE, AZ       NOT AVBL
GRAND CANYON   CLEAR     44  12  27 NE5       30.14F
KINGMAN, AZ    CLEAR     73  19  13 E6        29.89S
FLAGSTAFF, AZ  CLEAR     56  23  27 W7        30.19S

$$

REGIONAL REPORTS    NEVADA/IDAHO/WYOMING

CITY           SKY/WX    TMP DP  RH WIND       PRES   REMARKS
LAS VEGAS, NV  CLEAR     91  21   8 S10       29.73S
ELY, NY        CLEAR     52  18  26 S12       30.09S
ELKO, NV       CLEAR     59  27  29 CALM      30.02R
POCATELLO, ID  CLEAR     50  47  89 SW8       29.96R
BURLEY, ID     CLEAR     52  37  56 CALM      29.95R
FORT BRIDGER,    N/A     50  36  58 W7        30.11F
EVANSTON, WY   CLEAR     53  40  61 S6        30.09F
ROCK SPRINGS,  CLOUDY    51  34  52 S6        30.06F
KEMMERER, WY     N/A     50  36  57 CALM      30.10S

$$




USA.gov is the U.S. government's official web portal to all federal, state and local government web resources and services.